www.pogodaiklimat.ru

Погода и климат >> Архив погоды >> Норвегия >> Сонгфельсхутта


ПОГОДА в Сонгфельсхутте

  • Прогноз погоды в Сонгфельсхутте
  • Монитор погоды в Сонгфельсхутте

АРХИВ ПОГОДЫ в Сонгфельсхутте

Время (UTC), дата Ветер
(напр.,м/с)
 
Видим.   Явления Облачность Т
(С)
Тd
(С)
f
(%)
Тe
(С)
Тes
(С)
Комфортность P
(гПа)
Po
(гПа)
Тmin
(С)
Tmax
(С)
R
(мм)
R24
(мм)
S
(см)
01 11.09 Ю 4
{8}
н/о н/о +7.0 +6.0 93 +3 +3 1006.9 850.3
02 11.09 Ю 4
{8}
н/о н/о +7.0 +6.4 96 +3 +3 1006.1 849.6
03 11.09 Ю 5
{8}
н/о н/о +6.7 +6.6 99 +2 +2 1005.1 848.6
04 11.09 Ю 4
{9}
н/о н/о +6.8 +6.7 99 +3 +3 1004.0 847.7
05 11.09 Ю 6
{10}
н/о н/о +6.9 +6.5 97 +2 +2 1002.9 846.8 0.1
06 11.09 Ю 7
{11}
н/о н/о +7.1 +4.8 85 +2 +2 1001.8 846.0 +6.6 +8.1 0.1
07 11.09 Ю 5
{10}
н/о н/о +6.9 +3.7 80 +3 +3 1001.6 845.7
08 11.09 Ю 10
{13}
н/о н/о +5.5 +1.3 74 -1 -1 1002.2 845.6
09 11.09 Ю 7
{13}
н/о н/о +4.6 +2.6 87 -1 -1 1002.6 845.4 0.1
10 11.09 Ю 8
{12}
н/о н/о +4.1 +2.5 89 -2 -2 1002.3 844.9 0.2
11 11.09 Ю 6
{11}
н/о н/о +3.6 +3.5 99 -2 -2 1002.2 844.6 0.4
12 11.09 Ю 6
{13}
н/о н/о +3.7 +3.4 98 -2 -2 1001.8 844.2 2
13 11.09 Ю 7
{11}
н/о н/о +3.7 +3.6 99 -3 -3 1001.6 844.1 0.5
14 11.09 Ю 6
{10}
н/о н/о +4.1 +4.0 99 -2 -2 1001.2 843.9 0.5
15 11.09 Ю 6
{10}
н/о н/о +4.6 +4.5 99 -1 -1 1000.6 843.7
16 11.09 Ю 4
{8}
н/о н/о +4.8 +4.7 99 0 0 1000.6 843.8
17 11.09 ЮЗ 8
{15}
н/о н/о +4.5 +4.4 99 -2 -2 1001.6 844.5 1
18 11.09 З 8
{15}
н/о н/о +3.8 +3.7 99 -3 -3 1002.7 845.1 +3.4 +7.1 5
19 11.09 З 8
{13}
н/о н/о +3.7 +3.6 99 -3 -3 1003.4 845.6 0.6
20 11.09 З 8
{13}
н/о н/о +3.5 +3.2 98 -3 -3 1003.7 845.8
21 11.09 З 8
{15}
н/о н/о +3.2 +3.1 99 -4 -4 1004.4 846.2 0.1
22 11.09 ЮЗ 8
{12}
н/о н/о +3.0 +2.9 99 -4 -4 1005.1 846.7
23 11.09 З 7
{11}
н/о н/о +2.7 +2.6 99 -4 -4 1005.5 846.9 0.2
00 12.09 З 6
{15}
н/о н/о +2.7 +2.6 99 -3 -3 1005.9 847.2
01 12.09 З 9
{13}
н/о н/о +2.8 +2.7 99 -4 -4 1006.3 847.6 0.1
02 12.09 З 9
{13}
н/о н/о +2.5 +2.4 99 -5 -5 1006.8 847.9
03 12.09 З 7
{13}
н/о н/о +2.5 +2.4 99 -4 -4 1006.8 847.9 0.1
04 12.09 З 8
{13}
н/о н/о +2.4 +2.3 99 -5 -5 1007.2 848.2 0.1
05 12.09 З 10
{13}
н/о н/о +2.9 +2.5 97 -5 -5 1007.3 848.5 0.1
06 12.09 З 9
{15}
н/о н/о +2.6 +2.5 99 -5 -5 1007.7 848.7 +2.4 +3.9 1
07 12.09 З 10
{14}
н/о н/о +2.9 +2.8 99 -5 -5 1007.8 848.9
08 12.09 З 12
{17}
н/о н/о +3.3 +3.2 99 -5 -5 1007.8 849.1
09 12.09 З 14
{19}
н/о н/о +3.2 +3.2 100 -5 -5 1008.2 849.4 0.1
10 12.09 З 12
{20}
н/о н/о +3.7 +2.8 94 -4 -4 1008.3 849.8
11 12.09 ЮЗ 11
{18}
н/о н/о +4.3 +3.0 91 -3 -3 1008.6 850.3
12 12.09 ЮЗ 9
{20}
н/о н/о +3.4 +3.1 98 -4 -4 1009.3 850.5
13 12.09 З 11
{15}
н/о н/о +2.8 +2.8 100 -5 -5 1010.3 851.0 0.5
14 12.09 З 8
{14}
н/о н/о +2.2 +2.2 100 -5 -5 1010.9 851.2 0.5
15 12.09 З 7
{11}
н/о н/о +2.0 +2.0 100 -5 -5 1011.2 851.3 0.3
16 12.09 З 6
{10}
н/о н/о +2.3 +2.0 98 -4 -4 1011.0 851.3 0.1
17 12.09 ЮЗ 6
{9}
н/о н/о +2.1 +2.1 100 -4 -4 1010.9 851.1
18 12.09 З 8
{15}
н/о н/о +1.7 +1.7 100 -6 -6 1010.9 851.0 +4.4 2
19 12.09 З 7
{11}
н/о н/о +1.2 +1.2 100 -6 -6 1011.6 851.2
20 12.09 З 5
{10}
н/о н/о +0.2 +0.2 100 -6 -6 1012.2 851.2 1
21 12.09 З 4
{6}
н/о н/о +0.1 +0.1 100 -6 -6 1012.7 851.6 0.7
22 12.09 З 3
{6}
н/о н/о 0.0 0.0 100 -5 -5 1012.9 851.7 0.8
23 12.09 З 4
{7}
н/о н/о 0.0 0.0 100 -6 -6 1013.3 852.0
00 13.09 З 5
{11}
н/о н/о -0.1 -0.1 100 -7 -7 1013.9 852.5 0.2
01 13.09 З 6
{9}
н/о н/о -0.5 -0.5 100 -8 -8 1014.5 852.8
02 13.09 З 7
{10}
н/о н/о -0.7 -0.7 100 -8 -8 1014.9 853.0 0.1
03 13.09 З 9
{12}
н/о н/о -0.7 -0.8 99 -9 -9 1015.0 853.0
04 13.09 З 8
{11}
н/о н/о -0.7 -0.8 99 -9 -9 1014.9 853.0
05 13.09 З 8
{13}
н/о н/о -0.8 -0.9 99 -9 -9 1015.5 853.5
06 13.09 З 7
{13}
н/о н/о -0.7 -0.8 99 -8 -8 1016.4 854.3 -0.9 +2.0 3
07 13.09 З 7
{11}
н/о н/о -0.8 -0.9 99 -8 -8 1017.3 855.0
08 13.09 З 9
{11}
н/о н/о -0.7 -0.8 99 -9 -9 1017.7 855.3
09 13.09 З 7
{13}
н/о н/о -0.6 -0.7 99 -8 -8 1017.9 855.6
10 13.09 З 9 н/о н/о -0.4 -0.5 99 -9 -9 1018.5 856.2 0.1
11 13.09 н/о н/о
12 13.09 З 9
{13}
н/о н/о -0.2 -0.3 99 -8 -8 1019.7 857.3 0.3
13 13.09 З 8 н/о н/о -0.1 -0.2 99 -8 -8 1020.2 857.8
14 13.09 З 8 н/о н/о -0.3 -0.4 99 -8 -8 1020.3 857.8
15 13.09 З 8 н/о н/о -0.3 -0.4 99 -8 -8 1020.3 857.8 0.1
16 13.09 З 8 н/о н/о -0.5 -0.6 99 -8 -8 1020.6 857.9 0.1
17 13.09 З 9 н/о н/о -0.6 -0.7 99 -9 -9 1020.9 858.1 0.1
18 13.09 З 10
{13}
н/о н/о -0.9 -1.0 99 -10 -10 1021.6 858.5 +0.1 0.6
19 13.09 З 7 н/о н/о -1.0 -1.1 99 -9 -9 1022.2 859.0 0.1
20 13.09 З 9 н/о н/о -1.1 -1.2 99 -10 -10 1022.5 859.2
21 13.09 З 8 н/о н/о -1.1 -1.2 99 -9 -9 1022.5 859.2 0.1
22 13.09 З 8 н/о н/о -1.3 -1.4 99 -9 -9 1023.1 859.6
23 13.09 З 7 н/о н/о -1.2 -1.3 99 -9 -9 1023.3 859.8 0.2
00 14.09 З 8
{14}
н/о н/о -1.0 -1.1 99 -9 -9 1023.1 859.7 0.4
01 14.09 З 7
{12}
н/о н/о -0.9 -1.0 99 -9 -9 1023.3 860.0
02 14.09 З 7
{11}
н/о н/о -0.7 -0.8 99 -8 -8 1023.5 860.2 0.1
03 14.09 З 8 н/о н/о -0.7 -0.8 99 -9 -9 1023.2 859.9
04 14.09 З 7
{11}
н/о н/о -0.9 -1.0 99 -9 -9 1023.0 859.7
05 14.09 З 9
{13}
н/о н/о -0.7 -0.8 99 -9 -9 1022.6 859.5 0.1
06 14.09 З 8
{13}
н/о н/о -0.7 -0.8 99 -9 -9 1022.4 859.3 -1.4 -0.5 0.6
07 14.09 З 8 н/о н/о -0.5 -0.6 99 -8 -8 1022.0 859.0
09 14.09 ЮЗ 7
{10}
н/о н/о -0.2 -0.3 99 -8 -8 1021.4 858.7
10 14.09 З 6
{9}
н/о н/о 0.0 -0.1 99 -7 -7 1021.2 858.7
11 14.09 З 7
{11}
н/о н/о +0.3 +0.2 99 -7 -7 1020.1 857.9
12 14.09 З 6 н/о н/о -0.2 -0.3 99 -7 -7 1019.7 857.3
13 14.09 Ю 4
{8}
н/о н/о +0.2 +0.1 99 -5 -5 1018.2 856.3 0.1
14 14.09 Ю 5
{9}
н/о н/о 0.0 -0.1 99 -6 -6 1015.9 854.2 1
15 14.09 Ю 7
{10}
н/о н/о 0.0 -0.1 99 -7 -7 1013.7 852.4 0.5
16 14.09 Ю 6
{11}
н/о н/о 0.0 -0.1 99 -7 -7 1012.1 851.1 0.2
17 14.09 Ю 7
{12}
н/о н/о -0.1 -0.2 99 -7 -7 1009.9 849.1 0.9
18 14.09 Ю 7
{17}
н/о н/о 0.0 -0.1 99 -7 -7 1007.8 847.4
19 14.09 Ю 7
{11}
н/о н/о -0.5 -0.6 99 -8 -8 1006.3 845.9 2
20 14.09 Ю 6
{12}
н/о н/о -0.9 -1.0 99 -8 -8 1005.3 844.8 3
21 14.09 ЮВ 5
{10}
н/о н/о -1.1 -1.2 99 -8 -8 1004.2 843.8 3
22 14.09 ЮЗ 6
{8}
н/о н/о -0.1 -0.2 99 -7 -7 1002.9 843.3 1
23 14.09 ЮЗ 13
{20}
н/о н/о +0.6 +0.5 99 -9 -9 1000.8 841.8 0.4
00 15.09 ЮЗ 11
{20}
н/о н/о +0.8 +0.7 99 -8 -8 999.1 840.6 0.3
01 15.09 ЮЗ 15
{20}
н/о н/о +0.1 -1.0 92 -10 -10 998.1 839.3 0.3
02 15.09 ЮЗ 11
{23}
н/о н/о -0.4 -0.5 99 -9 -9 997.2 838.3 0.1
03 15.09 З 10
{17}
н/о н/о -1.1 -1.2 99 -10 -10 997.6 838.3 0.4
04 15.09 ЮЗ 14
{18}
н/о н/о -1.3 -1.4 99 -11 -11 996.5 837.2
05 15.09 ЮЗ 11
{17}
н/о н/о -1.4 -1.5 99 -11 -11 995.9 836.7
06 15.09 З 13
{23}
н/о н/о -1.4 -1.5 99 -11 -11 995.2 836.1 -1.6 +1.1 10
07 15.09 ЮЗ 12
{18}
н/о н/о -1.2 -1.3 99 -11 -11 994.9 835.9 0.1
08 15.09 ЮЗ 13
{18}
н/о н/о -1.0 -1.1 99 -11 -11 994.5 835.7
09 15.09 ЮЗ 12
{18}
н/о н/о -0.4 -0.9 96 -10 -10 993.3 835.0
10 15.09 ЮЗ 8
{17}
н/о н/о 0.0 -0.2 99 -8 -8 992.9 834.8
11 15.09 З 9
{13}
н/о н/о -0.3 -0.4 99 -9 -9 993.2 835.0 0.1
12 15.09 З 10
{18}
н/о н/о +0.2 +0.1 99 -8 -8 993.4 835.4 0.2
13 15.09 З 10
{15}
н/о н/о +0.5 +0.4 99 -8 -8 994.1 836.1 0.1
14 15.09 З 10
{15}
н/о н/о +0.2 +0.1 99 -8 -8 995.2 836.9 0.1
15 15.09 З 9
{14}
н/о н/о +0.1 0.0 99 -8 -8 995.5 837.1 0.2
16 15.09 З 9
{14}
н/о н/о +0.1 0.0 99 -8 -8 995.8 837.4 0.1
17 15.09 З 10
{14}
н/о н/о 0.0 -0.1 99 -8 -8 997.1 838.4 0.2
18 15.09 З 10
{15}
н/о н/о 0.0 -0.1 99 -8 -8 998.6 839.7 -1.4 +0.5 1
19 15.09 З 9
{14}
н/о н/о -0.1 -0.2 99 -8 -8 999.5 840.4
20 15.09 З 11
{16}
н/о н/о -0.1 -0.2 99 -9 -9 1000.6 841.3 0.1
21 15.09 З 12
{17}
н/о н/о -0.3 -0.4 99 -9 -9 1001.4 841.9 0.2
22 15.09 З 12
{17}
н/о н/о -0.8 -0.9 99 -10 -10 1002.5 842.5 0.1
23 15.09 З 10
{16}
н/о н/о -1.2 -1.3 99 -10 -10 1003.6 843.2 0.1
00 16.09 З 8
{17}
н/о н/о -2.2 -2.3 99 -11 -11 1005.7 844.5
01 16.09 З 9
{14}
н/о н/о -2.5 -2.6 99 -11 -11 1006.2 844.7 0.1
02 16.09 З 9
{15}
н/о н/о -2.5 -2.6 99 -11 -11 1006.9 845.3
03 16.09 З 6
{12}
н/о н/о -2.4 -2.5 99 -10 -10 1007.6 846.0
04 16.09 З 9
{14}
н/о н/о -2.5 -2.6 99 -11 -11 1007.5 845.8 0.1
05 16.09 З 8
{14}
н/о н/о -3.2 -3.3 99 -12 -12 1008.3 846.1
06 16.09 З 8
{15}
н/о н/о -2.7 -2.8 99 -11 -11 1008.1 846.2 -3.2 +0.1 0.7
07 16.09 З 7
{10}
н/о н/о -2.6 -2.7 99 -11 -11 1008.7 846.8
08 16.09 З 7
{12}
н/о н/о -2.5 -3.1 96 -10 -10 1008.8 846.9
09 16.09 З 6
{12}
н/о н/о -1.7 -2.1 97 -9 -9 1008.8 847.3
10 16.09 З 6
{10}
н/о н/о -1.4 -1.9 96 -9 -9 1008.5 847.3
11 16.09 З 5
{10}
н/о н/о -1.1 -1.2 99 -8 -8 1008.8 847.7
12 16.09 З 5
{12}
н/о н/о -0.8 -0.9 99 -7 -7 1008.3 847.4
13 16.09 З 6
{8}
н/о н/о -0.6 -0.7 99 -8 -8 1007.8 847.1
14 16.09 З 7
{10}
н/о н/о -0.4 -0.5 99 -8 -8 1007.0 846.5
15 16.09 З 5
{9}
н/о н/о -0.3 -0.4 99 -7 -7 1006.4 846.1
16 16.09 З 9
{11}
н/о н/о -0.9 -1.0 99 -9 -9 1006.2 845.6
17 16.09 З 7
{11}
н/о н/о -2.0 -2.1 99 -10 -10 1006.8 845.5
18 16.09 З 6
{11}
н/о н/о -2.1 -2.2 99 -10 -10 1006.6 845.2 -2.8 -0.1
19 16.09 З 4
{7}
н/о н/о -2.4 -2.5 99 -9 -9 1006.2 844.8 0.2
20 16.09 З 6
{8}
н/о н/о -2.7 -2.8 99 -10 -10 1006.0 844.5
21 16.09 З 4
{7}
н/о н/о -2.8 -2.9 99 -9 -9 1005.5 844.0
22 16.09 З 2
{6}
н/о н/о -2.9 -3.0 99 -7 -7 1005.3 843.8 0.1
23 16.09 З 4
{6}
н/о н/о -3.1 -3.2 99 -9 -9 1004.7 843.2 0.7
00 17.09 З 6
{8}
н/о н/о -3.0 -3.1 99 -11 -11 1004.2 842.8
01 17.09 З 7
{9}
н/о н/о -3.4 -3.5 99 -12 -12 1004.3 842.7 0.1
02 17.09 СЗ 4
{9}
н/о н/о -4.2 -4.3 99 -11 -11 1005.1 842.9
03 17.09 З 3
{5}
н/о н/о -5.2 -5.4 98 -11 -11 1005.6 842.8 0.1
04 17.09 СЗ 2
{5}
н/о н/о -5.0 -5.4 97 -9 -9 1005.8 843.0
05 17.09 З 2
{4}
н/о н/о -4.6 -4.7 99 -9 -9 1005.8 843.3 0.1
06 17.09 СЗ 1
{9}
н/о н/о -5.6 -6.3 95 -8 -8 1007.0 843.8 -5.8 -2.1 1
07 17.09 СЗ 2
{5}
н/о н/о -5.2 -6.8 88 -10 -10 1007.8 844.6
08 17.09 СЗ 4
{6}
н/о н/о -4.3 -6.8 83 -11 -11 1008.1 845.4
09 17.09
{6}
н/о н/о -3.9 -6.8 80 1009.0 846.3
10 17.09 СЗ 3
{8}
н/о н/о -3.3 -6.7 77 -8 -8 1009.4 847.0
11 17.09 З 4
{6}
н/о н/о -2.8 -6.0 79 -9 -9 1010.2 847.9
12 17.09 З 2
{8}
н/о н/о -1.9 -3.6 88 -6 -6 1010.4 848.5
13 17.09 З 5
{6}
н/о н/о -2.1 -3.1 93 -9 -9 1011.1 849.1
14 17.09 З 3
{7}
н/о н/о -2.3 -2.7 97 -8 -8 1012.1 849.8 0.2
15 17.09 З 3
{7}
н/о н/о -2.3 -2.4 99 -8 -8 1012.9 850.5 0.1
16 17.09 З 4
{6}
н/о н/о -2.0 -2.1 99 -8 -8 1013.3 851.0 0.5
17 17.09 З 4
{7}
н/о н/о -1.6 -1.7 99 -8 -8 1013.8 851.6
18 17.09 З 7
{10}
н/о н/о -1.5 -1.6 99 -9 -9 1014.3 852.1 -6.8 -1.4 0.8
19 17.09 З 7
{9}
н/о н/о -1.9 -2.0 99 -10 -10 1014.9 852.4
20 17.09 З 6
{9}
н/о н/о -1.8 -1.9 99 -9 -9 1015.5 852.9
21 17.09 З 8
{10}
н/о н/о -1.9 -2.0 99 -10 -10 1015.8 853.1
22 17.09 З 7
{11}
н/о н/о -1.8 -1.9 99 -10 -10 1015.9 853.3
23 17.09 З 6
{9}
н/о н/о -2.0 -2.1 99 -9 -9 1016.7 853.8
00 18.09 З 5
{11}
н/о н/о -2.3 -2.4 99 -9 -9 1017.0 853.9

 

Местоположение метеостанции Сонгфельсхутта (Норвегия): широта 61.57 долгота 8.00 высота над уровнем моря 1413 м.

В архиве по умолчанию представлена погода в Сонгфельсхутте за последнюю неделю. Архивные данные за месяц целиком и за предыдущие месяцы, начиная с января 2011 года, Вы можете получить, выбрав интересующий диапазон дат из раскрывающегося списка и нажав кнопку "Ввод!".


*Определитесь, кто Вы:
робот инопланетянин человек

Внимание! Время в таблицах - всемирное. Для получения местного времени необходимо прибавить поправку, которая равна 1 ч.

Смотрите также архив погоды в соседних городах и на ближайших метеорологических станциях:

Погода в Юввассу (Норвегия) (23 км)
Погода в Брате (Норвегия) (37 км)
Погода в Филефеле (Норвегия) (44 км)
Погода в Гротли (Норвегия) (53 км)
Погода в Лардале (Норвегия) (59 км)
Погода в Бейтостолене (Норвегия) (61 км)
Погода в Согндал аэропорту (Норвегия) (66 км)
Погода во Фьерлэнде (Норвегия) (67 км)
Погода в Скабу (Норвегия) (74 км)
Погода в Локен и Волбу (Норвегия) (76 км)

Пояснения к столбцам:

Ветер - указаны скорость ветра в м/с - средняя за 10 мин, порывы в срок и между сроками (в фигурных скобках) и направление, откуда дует ветер: С - северный, СВ - северо-восточный, В - восточный, ЮВ - юго-восточный, Ю - южный, ЮЗ - юго-западный, З - западный, СЗ - северо-западный.
Видимость - горизонтальная дальность видимости в метрах или километрах. При видимости от 1 до 10 км при отсутствии осадков обычно наблюдается дымка, при ухудшении видимости до 1 км и менее - туман. В сухую погоду видимость может ухудшаться дымом, пылью или мглою.
Явления - указаны атмосферные явления, наблюдавшиеся в срок или в последний час перед сроком; фигурными скобками обозначены явления, наблюдавшиеся между сроками (за 1-3 часа до срока); квадратными скобками обозначены град или гололедные отложения с указанием их диаметра в мм.
Облачность - указаны через наклонную черту общая и нижняя облачность в баллах и высота нижней границы облаков в метрах; квадратными скобками обозначены формы облаков: Ci - перистые, Cs - перисто-слоистые, Cc - перисто-кучевые, Ac - высококучевые, As - высокослоистые, Sc - слоисто-кучевые, Ns - слоисто-дождевые, Cu - кучевые, Cb - кучево-дождевые. Подробнее классификацию облаков см. в Атласе облаков (PDF).
T - Температура воздуха - температура, измеренная на высоте 2 м над землей.
Td - Температура точки росы - температура, при понижении до которой содержащийся в воздухе водяной пар достигнет насыщения.
f - Относительная влажность воздуха - влажноcть воздуха, измеренная на высоте 2 м над землей.
Te - Эффективная температура - температура, которую ощущает одетый по сезону человек в тени. Характеристика душности погоды. При расчете учитывается влияние влажности воздуха и скорости ветра на теплоощущения человека.
Tes - Эффективная температура на солнце - температура, которую ощущает человек, с поправкой на солнечный нагрев. Характеристика знойности погоды. Зависит от высоты солнца над горизонтом, облачности и скорости ветра. Ночью, в пасмурную погоду, а также при ветре 12 м/с и более поправка равна нулю.
P - Атмосферное давление - приведенное к уровню моря атмосферное давление.
Po - Атмосферное давление - измеренное на уровне метеостанции атмосферное давление.
Tmin - Минимальная температура - минимум температуры воздуха на высоте 2 м над землей.
Tmax - Максимальная температура - максимум температуры воздуха на высоте 2 м над землей.
R - Количество осадков - Количество выпавших осадков за период времени, мм. При наведении курсора мыши на число - период времени, за который выпало указанное количество осадков.
R24 - Количество осадков - Количество выпавших осадков за 24 часа, мм.
S - Снежный покров - Высота снежного покрова, см. При наведении курсора мыши на число - состояние снежного покрова и степень покрытия местности в баллах.